owner,sensor,date,latitude,longitude,vertical_datum,wind_speed,wind_to_direction,wind_speed_of_gust,qcFlag 
NDBC,ioos:station:NOAA.NDBC:PLSF1:1,2016-02-01T14:00:00Z,24.6930,-82.7730,10.0,5.1,-9999.0,5.7,'1111122,1111122,1111122' 
NDBC,ioos:station:NOAA.NDBC:PLSF1:1,2016-02-01T19:00:00Z,24.6930,-82.7730,10.0,3.1,-9999.0,3.6,'1111122,1111122,1111122' 
NDBC,ioos:station:NOAA.NDBC:PLSF1:1,2016-02-01T20:00:00Z,24.6930,-82.7730,10.0,3.1,-9999.0,3.1,'1111122,1111122,1111122' 
NDBC,ioos:station:NOAA.NDBC:PLSF1:1,2016-02-01T21:00:00Z,24.6930,-82.7730,10.0,1.0,-9999.0,1.0,'1111122,1111122,1111122' 
NDBC,ioos:station:NOAA.NDBC:PLSF1:1,2016-02-01T22:00:00Z,24.6930,-82.7730,10.0,1.5,-9999.0,1.5,'1111122,1111122,1111122' 
NDBC,ioos:station:NOAA.NDBC:PLSF1:1,2016-02-01T23:00:00Z,24.6930,-82.7730,10.0,0.0,-9999.0,0.5,'1114422,1111122,1111122' 
NDBC,ioos:station:NOAA.NDBC:PLSF1:1,2016-02-02T00:00:00Z,24.6930,-82.7730,10.0,1.5,-9999.0,2.1,'1111122,1111122,1111122' 
NDBC,ioos:station:NOAA.NDBC:PLSF1:1,2016-02-02T01:00:00Z,24.6930,-82.7730,10.0,3.6,-9999.0,3.6,'1111122,1111122,1111122' 
NDBC,ioos:station:NOAA.NDBC:PLSF1:1,2016-02-02T02:00:00Z,24.6930,-82.7730,10.0,3.6,-9999.0,4.1,'1111122,1111122,1111122' 
NDBC,ioos:station:NOAA.NDBC:PLSF1:1,2016-02-02T03:00:00Z,24.6930,-82.7730,10.0,3.1,-9999.0,3.6,'1111122,1111122,1111122' 
NDBC,ioos:station:NOAA.NDBC:PLSF1:1,2016-02-02T04:00:00Z,24.6930,-82.7730,10.0,3.6,-9999.0,4.1,'1111122,1111122,1111122' 
NDBC,ioos:station:NOAA.NDBC:PLSF1:1,2016-02-02T05:00:00Z,24.6930,-82.7730,10.0,3.6,-9999.0,4.1,'1111122,1111122,1111122' 
NDBC,ioos:station:NOAA.NDBC:PLSF1:1,2016-02-02T06:00:00Z,24.6930,-82.7730,10.0,3.1,-9999.0,3.1,'1111122,1111122,1111122' 
NDBC,ioos:station:NOAA.NDBC:PLSF1:1,2016-02-02T07:00:00Z,24.6930,-82.7730,10.0,3.1,-9999.0,3.1,'1111122,1111122,1111122' 
NDBC,ioos:station:NOAA.NDBC:PLSF1:1,2016-02-02T08:00:00Z,24.6930,-82.7730,10.0,3.6,-9999.0,4.1,'1111122,1111122,1111122' 
NDBC,ioos:station:NOAA.NDBC:PLSF1:1,2016-02-02T09:00:00Z,24.6930,-82.7730,10.0,4.6,-9999.0,5.1,'1111122,1111122,1111122' 
NDBC,ioos:station:NOAA.NDBC:PLSF1:1,2016-02-02T10:00:00Z,24.6930,-82.7730,10.0,4.1,-9999.0,4.6,'1111122,1111122,1111122' 
NDBC,ioos:station:NOAA.NDBC:PLSF1:1,2016-02-02T11:00:00Z,24.6930,-82.7730,10.0,4.6,-9999.0,5.1,'1111122,1111122,1111122' 
NDBC,ioos:station:NOAA.NDBC:PLSF1:1,2016-02-02T12:00:00Z,24.6930,-82.7730,10.0,5.7,-9999.0,6.2,'1111122,1111122,1111122' 
NDBC,ioos:station:NOAA.NDBC:PLSF1:1,2016-02-02T13:00:00Z,24.6930,-82.7730,10.0,6.2,-9999.0,6.7,'1111122,1111122,1111122' 
NDBC,ioos:station:NOAA.NDBC:PLSF1:1,2016-02-02T14:00:00Z,24.6930,-82.7730,10.0,6.2,-9999.0,6.7,'1111122,1111122,1111122' 
NDBC,ioos:station:NOAA.NDBC:PLSF1:1,2016-02-02T15:00:00Z,24.6930,-82.7730,10.0,6.7,-9999.0,7.2,'1111122,1111122,1111122' 
NDBC,ioos:station:NOAA.NDBC:PLSF1:1,2016-02-02T16:00:00Z,24.6930,-82.7730,10.0,6.2,-9999.0,6.7,'1111122,1111122,1111122' 
NDBC,ioos:station:NOAA.NDBC:PLSF1:1,2016-02-02T18:00:00Z,24.6930,-82.7730,10.0,5.7,-9999.0,6.2,'1111122,1111122,1111122' 
NDBC,ioos:station:NOAA.NDBC:PLSF1:1,2016-02-02T19:00:00Z,24.6930,-82.7730,10.0,4.1,-9999.0,5.1,'1111122,1111122,1111122' 
NDBC,ioos:station:NOAA.NDBC:PLSF1:1,2016-02-02T20:00:00Z,24.6930,-82.7730,10.0,5.7,-9999.0,6.2,'1111122,1111122,1111122' 
NDBC,ioos:station:NOAA.NDBC:PLSF1:1,2016-02-02T21:00:00Z,24.6930,-82.7730,10.0,5.7,-9999.0,6.2,'1111122,1111122,1111122' 
NDBC,ioos:station:NOAA.NDBC:PLSF1:1,2016-02-02T22:00:00Z,24.6930,-82.7730,10.0,6.7,-9999.0,7.2,'1111122,1111122,1111122' 
NDBC,ioos:station:NOAA.NDBC:PLSF1:1,2016-02-02T23:00:00Z,24.6930,-82.7730,10.0,7.2,-9999.0,8.2,'1111122,1111122,1111122' 
NDBC,ioos:station:NOAA.NDBC:PLSF1:1,2016-02-03T00:00:00Z,24.6930,-82.7730,10.0,7.2,-9999.0,8.2,'1111122,1111122,1111122' 
NDBC,ioos:station:NOAA.NDBC:PLSF1:1,2016-02-03T01:00:00Z,24.6930,-82.7730,10.0,7.7,-9999.0,8.8,'1111122,1111122,1111122' 
NDBC,ioos:station:NOAA.NDBC:PLSF1:1,2016-02-03T02:00:00Z,24.6930,-82.7730,10.0,8.2,-9999.0,9.3,'1111122,1111122,1111122' 
NDBC,ioos:station:NOAA.NDBC:PLSF1:1,2016-02-03T03:00:00Z,24.6930,-82.7730,10.0,8.2,-9999.0,9.8,'1111122,1111122,1111122' 
NDBC,ioos:station:NOAA.NDBC:PLSF1:1,2016-02-03T04:00:00Z,24.6930,-82.7730,10.0,7.2,-9999.0,8.2,'1111122,1111122,1111122' 
NDBC,ioos:station:NOAA.NDBC:PLSF1:1,2016-02-03T05:00:00Z,24.6930,-82.7730,10.0,7.7,-9999.0,8.8,'1111122,1111122,1111122' 
NDBC,ioos:station:NOAA.NDBC:PLSF1:1,2016-02-03T06:00:00Z,24.6930,-82.7730,10.0,7.7,-9999.0,8.8,'1111122,1111122,1111122' 
NDBC,ioos:station:NOAA.NDBC:PLSF1:1,2016-02-03T07:00:00Z,24.6930,-82.7730,10.0,8.2,-9999.0,8.8,'1111122,1111122,1111122' 
NDBC,ioos:station:NOAA.NDBC:PLSF1:1,2016-02-03T08:00:00Z,24.6930,-82.7730,10.0,8.8,-9999.0,9.3,'1111122,1111122,1111122' 
NDBC,ioos:station:NOAA.NDBC:PLSF1:1,2016-02-03T09:00:00Z,24.6930,-82.7730,10.0,8.2,-9999.0,9.8,'1111122,1111122,1111122' 
NDBC,ioos:station:NOAA.NDBC:PLSF1:1,2016-02-03T10:00:00Z,24.6930,-82.7730,10.0,8.2,-9999.0,9.3,'1111122,1111122,1111122' 
NDBC,ioos:station:NOAA.NDBC:PLSF1:1,2016-02-03T11:00:00Z,24.6930,-82.7730,10.0,7.7,-9999.0,8.8,'1111122,1111122,1111122' 
NDBC,ioos:station:NOAA.NDBC:PLSF1:1,2016-02-03T12:00:00Z,24.6930,-82.7730,10.0,8.8,-9999.0,9.8,'1111122,1111122,1111122' 
NDBC,ioos:station:NOAA.NDBC:PLSF1:1,2016-02-03T13:00:00Z,24.6930,-82.7730,10.0,8.8,-9999.0,9.8,'1111122,1111122,1111122' 
NDBC,ioos:station:NOAA.NDBC:PLSF1:1,2016-02-03T14:00:00Z,24.6930,-82.7730,10.0,8.2,-9999.0,9.8,'1111122,1111122,1111122' 
NDBC,ioos:station:NOAA.NDBC:PLSF1:1,2016-02-03T15:00:00Z,24.6930,-82.7730,10.0,10.3,-9999.0,11.8,'1111122,1111122,1111122' 
NDBC,ioos:station:NOAA.NDBC:PLSF1:1,2016-02-03T16:00:00Z,24.6930,-82.7730,10.0,9.3,-9999.0,10.3,'1111122,1111122,1111122' 
NDBC,ioos:station:NOAA.NDBC:PLSF1:1,2016-02-03T17:00:00Z,24.6930,-82.7730,10.0,10.8,-9999.0,12.4,'1111122,1111122,1111122' 
NDBC,ioos:station:NOAA.NDBC:PLSF1:1,2016-02-03T18:00:00Z,24.6930,-82.7730,10.0,8.8,-9999.0,9.8,'1111122,1111122,1111122' 
NDBC,ioos:station:NOAA.NDBC:PLSF1:1,2016-02-03T19:00:00Z,24.6930,-82.7730,10.0,10.8,-9999.0,11.8,'1111122,1111122,1111122' 
NDBC,ioos:station:NOAA.NDBC:PLSF1:1,2016-02-03T20:00:00Z,24.6930,-82.7730,10.0,11.8,-9999.0,12.9,'1111122,1111122,1111122' 
NDBC,ioos:station:NOAA.NDBC:PLSF1:1,2016-02-03T21:00:00Z,24.6930,-82.7730,10.0,11.8,-9999.0,13.4,'1111122,1111122,1111122' 
NDBC,ioos:station:NOAA.NDBC:PLSF1:1,2016-02-03T22:00:00Z,24.6930,-82.7730,10.0,11.3,-9999.0,12.4,'1111122,1111122,1111122' 
NDBC,ioos:station:NOAA.NDBC:PLSF1:1,2016-02-03T23:00:00Z,24.6930,-82.7730,10.0,10.3,-9999.0,11.3,'1111122,1111122,1111122' 
NDBC,ioos:station:NOAA.NDBC:PLSF1:1,2016-02-04T00:00:00Z,24.6930,-82.7730,10.0,7.7,-9999.0,8.2,'1111122,1111122,1111122' 
NDBC,ioos:station:NOAA.NDBC:PLSF1:1,2016-02-04T01:00:00Z,24.6930,-82.7730,10.0,8.2,-9999.0,8.8,'1111122,1111122,1111122' 
NDBC,ioos:station:NOAA.NDBC:PLSF1:1,2016-02-04T02:00:00Z,24.6930,-82.7730,10.0,7.2,-9999.0,7.7,'1111122,1111122,1111122' 
NDBC,ioos:station:NOAA.NDBC:PLSF1:1,2016-02-04T03:00:00Z,24.6930,-82.7730,10.0,7.2,-9999.0,7.7,'1111122,1111122,1111122' 
NDBC,ioos:station:NOAA.NDBC:PLSF1:1,2016-02-04T04:00:00Z,24.6930,-82.7730,10.0,7.7,-9999.0,8.8,'1111122,1111122,1111122' 
NDBC,ioos:station:NOAA.NDBC:PLSF1:1,2016-02-04T05:00:00Z,24.6930,-82.7730,10.0,7.2,-9999.0,8.2,'1111122,1111122,1111122' 
NDBC,ioos:station:NOAA.NDBC:PLSF1:1,2016-02-04T06:00:00Z,24.6930,-82.7730,10.0,6.7,-9999.0,7.7,'1111122,1111122,1111122' 
NDBC,ioos:station:NOAA.NDBC:PLSF1:1,2016-02-04T07:00:00Z,24.6930,-82.7730,10.0,7.7,-9999.0,8.2,'1111122,1111122,1111122' 
NDBC,ioos:station:NOAA.NDBC:PLSF1:1,2016-02-04T08:00:00Z,24.6930,-82.7730,10.0,6.7,-9999.0,7.2,'1111122,1111122,1111122' 
NDBC,ioos:station:NOAA.NDBC:PLSF1:1,2016-02-04T09:00:00Z,24.6930,-82.7730,10.0,7.2,-9999.0,7.7,'1111122,1111122,1111122' 
NDBC,ioos:station:NOAA.NDBC:PLSF1:1,2016-02-04T10:00:00Z,24.6930,-82.7730,10.0,6.7,-9999.0,7.7,'1111122,1111122,1111122' 
NDBC,ioos:station:NOAA.NDBC:PLSF1:1,2016-02-04T11:00:00Z,24.6930,-82.7730,10.0,8.2,-9999.0,8.8,'1111122,1111122,1111122' 
NDBC,ioos:station:NOAA.NDBC:PLSF1:1,2016-02-04T12:00:00Z,24.6930,-82.7730,10.0,7.7,-9999.0,8.8,'1111122,1111122,1111122' 
NDBC,ioos:station:NOAA.NDBC:PLSF1:1,2016-02-04T13:00:00Z,24.6930,-82.7730,10.0,9.8,-9999.0,10.8,'1111122,1111122,1111122' 
NDBC,ioos:station:NOAA.NDBC:PLSF1:1,2016-02-04T14:00:00Z,24.6930,-82.7730,10.0,9.8,-9999.0,10.8,'1111122,1111122,1111122' 
NDBC,ioos:station:NOAA.NDBC:PLSF1:1,2016-02-04T16:00:00Z,24.6930,-82.7730,10.0,9.8,-9999.0,10.3,'1111122,1111122,1111122' 
NDBC,ioos:station:NOAA.NDBC:PLSF1:1,2016-02-04T17:00:00Z,24.6930,-82.7730,10.0,9.3,-9999.0,9.8,'1111122,1111122,1111122' 
NDBC,ioos:station:NOAA.NDBC:PLSF1:1,2016-02-04T18:00:00Z,24.6930,-82.7730,10.0,8.2,-9999.0,8.8,'1111122,1111122,1111122' 
NDBC,ioos:station:NOAA.NDBC:PLSF1:1,2016-02-05T06:00:00Z,24.6930,-82.7730,10.0,14.4,-9999.0,16.0,'1111122,1111122,1111122' 
NDBC,ioos:station:NOAA.NDBC:PLSF1:1,2016-02-05T07:00:00Z,24.6930,-82.7730,10.0,12.4,-9999.0,14.4,'1111122,1111122,1111122' 
NDBC,ioos:station:NOAA.NDBC:PLSF1:1,2016-02-05T08:00:00Z,24.6930,-82.7730,10.0,13.9,-9999.0,16.0,'1111122,1111122,1111122' 
NDBC,ioos:station:NOAA.NDBC:PLSF1:1,2016-02-05T09:00:00Z,24.6930,-82.7730,10.0,14.4,-9999.0,16.5,'1111122,1111122,1111122' 
NDBC,ioos:station:NOAA.NDBC:PLSF1:1,2016-02-05T11:00:00Z,24.6930,-82.7730,10.0,13.9,-9999.0,14.9,'1111122,1111122,1111122' 
NDBC,ioos:station:NOAA.NDBC:PLSF1:1,2016-02-05T12:00:00Z,24.6930,-82.7730,10.0,14.9,-9999.0,17.0,'1111122,1111122,1111122' 
NDBC,ioos:station:NOAA.NDBC:PLSF1:1,2016-02-05T13:00:00Z,24.6930,-82.7730,10.0,14.9,-9999.0,17.0,'1111122,1111122,1111122' 
NDBC,ioos:station:NOAA.NDBC:PLSF1:1,2016-02-05T14:00:00Z,24.6930,-82.7730,10.0,14.9,-9999.0,17.0,'1111122,1111122,1111122' 
NDBC,ioos:station:NOAA.NDBC:PLSF1:1,2016-02-05T15:00:00Z,24.6930,-82.7730,10.0,12.4,-9999.0,14.4,'1111122,1111122,1111122' 
NDBC,ioos:station:NOAA.NDBC:PLSF1:1,2016-02-05T16:00:00Z,24.6930,-82.7730,10.0,13.4,-9999.0,14.4,'1111122,1111122,1111122' 
NDBC,ioos:station:NOAA.NDBC:PLSF1:1,2016-02-05T17:00:00Z,24.6930,-82.7730,10.0,12.4,-9999.0,13.9,'1111122,1111122,1111122' 
NDBC,ioos:station:NOAA.NDBC:PLSF1:1,2016-02-05T18:00:00Z,24.6930,-82.7730,10.0,10.8,-9999.0,12.4,'1111122,1111122,1111122' 
NDBC,ioos:station:NOAA.NDBC:PLSF1:1,2016-02-05T19:00:00Z,24.6930,-82.7730,10.0,11.3,-9999.0,13.4,'1111122,1111122,1111122' 
NDBC,ioos:station:NOAA.NDBC:PLSF1:1,2016-02-05T20:00:00Z,24.6930,-82.7730,10.0,10.3,-9999.0,11.8,'1111122,1111122,1111122' 
NDBC,ioos:station:NOAA.NDBC:PLSF1:1,2016-02-05T21:00:00Z,24.6930,-82.7730,10.0,9.3,-9999.0,10.8,'1111122,1111122,1111122' 
NDBC,ioos:station:NOAA.NDBC:PLSF1:1,2016-02-05T22:00:00Z,24.6930,-82.7730,10.0,8.8,-9999.0,9.8,'1111122,1111122,1111122' 
NDBC,ioos:station:NOAA.NDBC:PLSF1:1,2016-02-06T00:00:00Z,24.6930,-82.7730,10.0,7.7,-9999.0,8.8,'1111122,1111122,1111122' 
NDBC,ioos:station:NOAA.NDBC:PLSF1:1,2016-02-06T01:00:00Z,24.6930,-82.7730,10.0,8.2,-9999.0,10.3,'1111122,1111122,1111122' 
NDBC,ioos:station:NOAA.NDBC:PLSF1:1,2016-02-06T02:00:00Z,24.6930,-82.7730,10.0,7.2,-9999.0,8.2,'1111122,1111122,1111122' 
NDBC,ioos:station:NOAA.NDBC:PLSF1:1,2016-02-06T03:00:00Z,24.6930,-82.7730,10.0,7.2,-9999.0,9.3,'1111122,1111122,1111122' 
NDBC,ioos:station:NOAA.NDBC:PLSF1:1,2016-02-06T04:00:00Z,24.6930,-82.7730,10.0,6.2,-9999.0,6.7,'1111122,1111122,1111122' 
NDBC,ioos:station:NOAA.NDBC:PLSF1:1,2016-02-06T05:00:00Z,24.6930,-82.7730,10.0,6.2,-9999.0,7.7,'1111122,1111122,1111122' 
NDBC,ioos:station:NOAA.NDBC:PLSF1:1,2016-02-06T06:00:00Z,24.6930,-82.7730,10.0,8.2,-9999.0,9.3,'1111122,1111122,1111122' 
NDBC,ioos:station:NOAA.NDBC:PLSF1:1,2016-02-06T07:00:00Z,24.6930,-82.7730,10.0,7.7,-9999.0,9.8,'1111122,1111122,1111122' 
NDBC,ioos:station:NOAA.NDBC:PLSF1:1,2016-02-06T08:00:00Z,24.6930,-82.7730,10.0,8.2,-9999.0,9.8,'1111122,1111122,1111122' 
NDBC,ioos:station:NOAA.NDBC:PLSF1:1,2016-02-06T09:00:00Z,24.6930,-82.7730,10.0,8.8,-9999.0,9.8,'1111122,1111122,1111122' 
NDBC,ioos:station:NOAA.NDBC:PLSF1:1,2016-02-06T10:00:00Z,24.6930,-82.7730,10.0,5.7,-9999.0,6.7,'1111122,1111122,1111122' 
NDBC,ioos:station:NOAA.NDBC:PLSF1:1,2016-02-06T11:00:00Z,24.6930,-82.7730,10.0,7.2,-9999.0,8.2,'1111122,1111122,1111122' 
NDBC,ioos:station:NOAA.NDBC:PLSF1:1,2016-02-06T12:00:00Z,24.6930,-82.7730,10.0,6.2,-9999.0,7.2,'1111122,1111122,1111122' 
NDBC,ioos:station:NOAA.NDBC:PLSF1:1,2016-02-06T13:00:00Z,24.6930,-82.7730,10.0,6.2,-9999.0,7.2,'1111122,1111122,1111122' 
NDBC,ioos:station:NOAA.NDBC:PLSF1:1,2016-02-06T14:00:00Z,24.6930,-82.7730,10.0,6.2,-9999.0,7.2,'1111122,1111122,1111122' 
NDBC,ioos:station:NOAA.NDBC:PLSF1:1,2016-02-06T15:00:00Z,24.6930,-82.7730,10.0,7.7,-9999.0,8.2,'1111122,1111122,1111122' 
NDBC,ioos:station:NOAA.NDBC:PLSF1:1,2016-02-06T16:00:00Z,24.6930,-82.7730,10.0,7.7,-9999.0,8.8,'1111122,1111122,1111122' 
NDBC,ioos:station:NOAA.NDBC:PLSF1:1,2016-02-06T17:00:00Z,24.6930,-82.7730,10.0,7.2,-9999.0,7.7,'1111122,1111122,1111122' 
NDBC,ioos:station:NOAA.NDBC:PLSF1:1,2016-02-06T18:00:00Z,24.6930,-82.7730,10.0,7.2,-9999.0,8.2,'1111122,1111122,1111122' 
NDBC,ioos:station:NOAA.NDBC:PLSF1:1,2016-02-06T19:00:00Z,24.6930,-82.7730,10.0,7.2,-9999.0,7.7,'1111122,1111122,1111122' 
NDBC,ioos:station:NOAA.NDBC:PLSF1:1,2016-02-06T20:00:00Z,24.6930,-82.7730,10.0,9.3,-9999.0,10.3,'1111122,1111122,1111122' 
NDBC,ioos:station:NOAA.NDBC:PLSF1:1,2016-02-06T21:00:00Z,24.6930,-82.7730,10.0,10.8,-9999.0,11.8,'1111122,1111122,1111122' 
NDBC,ioos:station:NOAA.NDBC:PLSF1:1,2016-02-06T22:00:00Z,24.6930,-82.7730,10.0,10.8,-9999.0,11.8,'1111122,1111122,1111122' 
NDBC,ioos:station:NOAA.NDBC:PLSF1:1,2016-02-06T23:00:00Z,24.6930,-82.7730,10.0,10.8,-9999.0,11.8,'1111122,1111122,1111122' 
NDBC,ioos:station:NOAA.NDBC:PLSF1:1,2016-02-07T00:00:00Z,24.6930,-82.7730,10.0,9.8,-9999.0,10.8,'1111122,1111122,1111122' 
NDBC,ioos:station:NOAA.NDBC:PLSF1:1,2016-02-07T01:00:00Z,24.6930,-82.7730,10.0,8.2,-9999.0,9.3,'1111122,1111122,1111122' 
NDBC,ioos:station:NOAA.NDBC:PLSF1:1,2016-02-07T02:00:00Z,24.6930,-82.7730,10.0,10.3,-9999.0,11.3,'1111122,1111122,1111122' 
NDBC,ioos:station:NOAA.NDBC:PLSF1:1,2016-02-07T03:00:00Z,24.6930,-82.7730,10.0,7.7,-9999.0,8.2,'1111122,1111122,1111122' 
NDBC,ioos:station:NOAA.NDBC:PLSF1:1,2016-02-07T04:00:00Z,24.6930,-82.7730,10.0,7.7,-9999.0,8.2,'1111122,1111122,1111122' 
NDBC,ioos:station:NOAA.NDBC:PLSF1:1,2016-02-07T05:00:00Z,24.6930,-82.7730,10.0,7.7,-9999.0,9.3,'1111122,1111122,1111122' 
NDBC,ioos:station:NOAA.NDBC:PLSF1:1,2016-02-07T06:00:00Z,24.6930,-82.7730,10.0,7.7,-9999.0,9.3,'1111122,1111122,1111122' 
NDBC,ioos:station:NOAA.NDBC:PLSF1:1,2016-02-07T07:00:00Z,24.6930,-82.7730,10.0,7.2,-9999.0,7.7,'1111122,1111122,1111122' 
NDBC,ioos:station:NOAA.NDBC:PLSF1:1,2016-02-07T08:00:00Z,24.6930,-82.7730,10.0,3.6,-9999.0,4.6,'1111122,1111122,1111122' 
NDBC,ioos:station:NOAA.NDBC:PLSF1:1,2016-02-07T09:00:00Z,24.6930,-82.7730,10.0,3.6,-9999.0,4.1,'1111122,1111122,1111122' 
NDBC,ioos:station:NOAA.NDBC:PLSF1:1,2016-02-07T10:00:00Z,24.6930,-82.7730,10.0,4.1,-9999.0,4.6,'1111122,1111122,1111122' 
NDBC,ioos:station:NOAA.NDBC:PLSF1:1,2016-02-07T11:00:00Z,24.6930,-82.7730,10.0,11.3,-9999.0,12.9,'1111122,1111122,1111122' 
NDBC,ioos:station:NOAA.NDBC:PLSF1:1,2016-02-07T12:00:00Z,24.6930,-82.7730,10.0,13.9,-9999.0,15.4,'1111122,1111122,1111122' 
NDBC,ioos:station:NOAA.NDBC:PLSF1:1,2016-02-07T13:00:00Z,24.6930,-82.7730,10.0,13.4,-9999.0,14.9,'1111122,1111122,1111122' 
NDBC,ioos:station:NOAA.NDBC:PLSF1:1,2016-02-09T09:00:00Z,24.6930,-82.7730,10.0,14.4,-9999.0,16.0,'1111122,1111122,1111122' 
NDBC,ioos:station:NOAA.NDBC:PLSF1:1,2016-02-09T15:00:00Z,24.6930,-82.7730,10.0,9.3,-9999.0,10.3,'1111122,1111122,1111122' 
NDBC,ioos:station:NOAA.NDBC:PLSF1:1,2016-02-09T16:00:00Z,24.6930,-82.7730,10.0,8.8,-9999.0,9.3,'1111122,1111122,1111122' 
NDBC,ioos:station:NOAA.NDBC:PLSF1:1,2016-02-09T17:00:00Z,24.6930,-82.7730,10.0,7.7,-9999.0,8.2,'1111122,1111122,1111122' 
NDBC,ioos:station:NOAA.NDBC:PLSF1:1,2016-02-09T18:00:00Z,24.6930,-82.7730,10.0,8.8,-9999.0,9.8,'1111122,1111122,1111122' 
NDBC,ioos:station:NOAA.NDBC:PLSF1:1,2016-02-09T19:00:00Z,24.6930,-82.7730,10.0,9.3,-9999.0,10.3,'1111122,1111122,1111122' 
NDBC,ioos:station:NOAA.NDBC:PLSF1:1,2016-02-09T20:00:00Z,24.6930,-82.7730,10.0,9.8,-9999.0,11.8,'1111122,1111122,1111122' 
NDBC,ioos:station:NOAA.NDBC:PLSF1:1,2016-02-09T21:00:00Z,24.6930,-82.7730,10.0,10.3,-9999.0,11.3,'1111122,1111122,1111122' 
NDBC,ioos:station:NOAA.NDBC:PLSF1:1,2016-02-09T22:00:00Z,24.6930,-82.7730,10.0,9.3,-9999.0,9.8,'1111122,1111122,1111122' 
NDBC,ioos:station:NOAA.NDBC:PLSF1:1,2016-02-09T23:00:00Z,24.6930,-82.7730,10.0,10.8,-9999.0,11.3,'1111122,1111122,1111122' 
NDBC,ioos:station:NOAA.NDBC:PLSF1:1,2016-02-10T00:00:00Z,24.6930,-82.7730,10.0,8.8,-9999.0,9.8,'1111122,1111122,1111122' 
NDBC,ioos:station:NOAA.NDBC:PLSF1:1,2016-02-10T01:00:00Z,24.6930,-82.7730,10.0,7.7,-9999.0,8.8,'1111122,1111122,1111122' 
NDBC,ioos:station:NOAA.NDBC:PLSF1:1,2016-02-10T02:00:00Z,24.6930,-82.7730,10.0,7.7,-9999.0,9.3,'1111122,1111122,1111122' 
NDBC,ioos:station:NOAA.NDBC:PLSF1:1,2016-02-10T03:00:00Z,24.6930,-82.7730,10.0,9.3,-9999.0,10.3,'1111122,1111122,1111122' 
NDBC,ioos:station:NOAA.NDBC:PLSF1:1,2016-02-10T04:00:00Z,24.6930,-82.7730,10.0,8.2,-9999.0,9.8,'1111122,1111122,1111122' 
NDBC,ioos:station:NOAA.NDBC:PLSF1:1,2016-02-10T05:00:00Z,24.6930,-82.7730,10.0,9.8,-9999.0,10.8,'1111122,1111122,1111122' 
NDBC,ioos:station:NOAA.NDBC:PLSF1:1,2016-02-10T06:00:00Z,24.6930,-82.7730,10.0,11.8,-9999.0,13.4,'1111122,1111122,1111122' 
NDBC,ioos:station:NOAA.NDBC:PLSF1:1,2016-02-10T07:00:00Z,24.6930,-82.7730,10.0,11.8,-9999.0,12.9,'1111122,1111122,1111122' 
NDBC,ioos:station:NOAA.NDBC:PLSF1:1,2016-02-10T08:00:00Z,24.6930,-82.7730,10.0,10.8,-9999.0,12.4,'1111122,1111122,1111122' 
NDBC,ioos:station:NOAA.NDBC:PLSF1:1,2016-02-10T09:00:00Z,24.6930,-82.7730,10.0,9.8,-9999.0,11.3,'1111122,1111122,1111122' 
NDBC,ioos:station:NOAA.NDBC:PLSF1:1,2016-02-10T10:00:00Z,24.6930,-82.7730,10.0,9.8,-9999.0,11.3,'1111122,1111122,1111122' 
NDBC,ioos:station:NOAA.NDBC:PLSF1:1,2016-02-10T11:00:00Z,24.6930,-82.7730,10.0,9.8,-9999.0,11.3,'1111122,1111122,1111122' 
NDBC,ioos:station:NOAA.NDBC:PLSF1:1,2016-02-10T12:00:00Z,24.6930,-82.7730,10.0,8.2,-9999.0,8.8,'1111122,1111122,1111122' 
NDBC,ioos:station:NOAA.NDBC:PLSF1:1,2016-02-10T13:00:00Z,24.6930,-82.7730,10.0,8.8,-9999.0,9.3,'1111122,1111122,1111122' 
NDBC,ioos:station:NOAA.NDBC:PLSF1:1,2016-02-10T14:00:00Z,24.6930,-82.7730,10.0,8.2,-9999.0,9.3,'1111122,1111122,1111122' 
NDBC,ioos:station:NOAA.NDBC:PLSF1:1,2016-02-10T15:00:00Z,24.6930,-82.7730,10.0,8.8,-9999.0,9.3,'1111122,1111122,1111122' 
NDBC,ioos:station:NOAA.NDBC:PLSF1:1,2016-02-10T16:00:00Z,24.6930,-82.7730,10.0,5.7,-9999.0,7.2,'1111122,1111122,1111122' 
NDBC,ioos:station:NOAA.NDBC:PLSF1:1,2016-02-10T17:00:00Z,24.6930,-82.7730,10.0,7.2,-9999.0,9.3,'1111122,1111122,1111122' 
NDBC,ioos:station:NOAA.NDBC:PLSF1:1,2016-02-10T18:00:00Z,24.6930,-82.7730,10.0,8.2,-9999.0,9.3,'1111122,1111122,1111122' 
NDBC,ioos:station:NOAA.NDBC:PLSF1:1,2016-02-10T19:00:00Z,24.6930,-82.7730,10.0,8.2,-9999.0,8.8,'1111122,1111122,1111122' 
NDBC,ioos:station:NOAA.NDBC:PLSF1:1,2016-02-10T20:00:00Z,24.6930,-82.7730,10.0,5.7,-9999.0,6.7,'1111122,1111122,1111122' 
NDBC,ioos:station:NOAA.NDBC:PLSF1:1,2016-02-10T21:00:00Z,24.6930,-82.7730,10.0,6.2,-9999.0,6.7,'1111122,1111122,1111122' 
NDBC,ioos:station:NOAA.NDBC:PLSF1:1,2016-02-10T22:00:00Z,24.6930,-82.7730,10.0,6.7,-9999.0,7.2,'1111122,1111122,1111122' 
NDBC,ioos:station:NOAA.NDBC:PLSF1:1,2016-02-10T23:00:00Z,24.6930,-82.7730,10.0,6.7,-9999.0,8.8,'1111122,1111122,1111122' 
NDBC,ioos:station:NOAA.NDBC:PLSF1:1,2016-02-11T00:00:00Z,24.6930,-82.7730,10.0,8.8,-9999.0,9.8,'1111122,1111122,1111122' 
NDBC,ioos:station:NOAA.NDBC:PLSF1:1,2016-02-11T01:00:00Z,24.6930,-82.7730,10.0,7.7,-9999.0,9.3,'1111122,1111122,1111122' 
NDBC,ioos:station:NOAA.NDBC:PLSF1:1,2016-02-11T02:00:00Z,24.6930,-82.7730,10.0,10.3,-9999.0,11.8,'1111122,1111122,1111122' 
NDBC,ioos:station:NOAA.NDBC:PLSF1:1,2016-02-12T10:00:00Z,24.6930,-82.7730,10.0,5.7,-9999.0,6.2,'1111122,1111122,1111122' 
NDBC,ioos:station:NOAA.NDBC:PLSF1:1,2016-02-12T11:00:00Z,24.6930,-82.7730,10.0,6.2,-9999.0,6.7,'1111122,1111122,1111122' 
NDBC,ioos:station:NOAA.NDBC:PLSF1:1,2016-02-12T12:00:00Z,24.6930,-82.7730,10.0,6.7,-9999.0,7.2,'1111122,1111122,1111122' 
NDBC,ioos:station:NOAA.NDBC:PLSF1:1,2016-02-12T13:00:00Z,24.6930,-82.7730,10.0,8.8,-9999.0,9.8,'1111122,1111122,1111122' 
NDBC,ioos:station:NOAA.NDBC:PLSF1:1,2016-02-12T14:00:00Z,24.6930,-82.7730,10.0,7.7,-9999.0,8.2,'1111122,1111122,1111122' 
NDBC,ioos:station:NOAA.NDBC:PLSF1:1,2016-02-16T05:00:00Z,24.6930,-82.7730,10.0,9.8,-9999.0,10.8,'1111122,1111122,1111122' 
NDBC,ioos:station:NOAA.NDBC:PLSF1:1,2016-02-16T06:00:00Z,24.6930,-82.7730,10.0,9.8,-9999.0,10.8,'1111122,1111122,1111122' 
NDBC,ioos:station:NOAA.NDBC:PLSF1:1,2016-02-16T07:00:00Z,24.6930,-82.7730,10.0,9.3,-9999.0,10.3,'1111122,1111122,1111122' 
NDBC,ioos:station:NOAA.NDBC:PLSF1:1,2016-02-16T08:00:00Z,24.6930,-82.7730,10.0,7.7,-9999.0,8.8,'1111122,1111122,1111122' 
NDBC,ioos:station:NOAA.NDBC:PLSF1:1,2016-02-16T09:00:00Z,24.6930,-82.7730,10.0,7.7,-9999.0,8.2,'1111122,1111122,1111122' 
NDBC,ioos:station:NOAA.NDBC:PLSF1:1,2016-02-16T10:00:00Z,24.6930,-82.7730,10.0,3.6,-9999.0,4.1,'1111122,1111122,1111122' 
NDBC,ioos:station:NOAA.NDBC:PLSF1:1,2016-02-16T11:00:00Z,24.6930,-82.7730,10.0,3.1,-9999.0,3.1,'1111122,1111122,1111122' 
NDBC,ioos:station:NOAA.NDBC:PLSF1:1,2016-02-16T12:00:00Z,24.6930,-82.7730,10.0,3.1,-9999.0,3.6,'1111122,1111122,1111122' 
NDBC,ioos:station:NOAA.NDBC:PLSF1:1,2016-02-16T13:00:00Z,24.6930,-82.7730,10.0,6.7,-9999.0,7.2,'1111122,1111122,1111122' 
NDBC,ioos:station:NOAA.NDBC:PLSF1:1,2016-02-16T14:00:00Z,24.6930,-82.7730,10.0,5.7,-9999.0,6.2,'1111122,1111122,1111122' 
NDBC,ioos:station:NOAA.NDBC:PLSF1:1,2016-02-16T15:00:00Z,24.6930,-82.7730,10.0,5.1,-9999.0,5.7,'1111122,1111122,1111122' 
NDBC,ioos:station:NOAA.NDBC:PLSF1:1,2016-02-17T01:00:00Z,24.6930,-82.7730,10.0,2.6,10.0,2.6,'1111122,1111122,1111122' 
NDBC,ioos:station:NOAA.NDBC:PLSF1:1,2016-02-17T02:00:00Z,24.6930,-82.7730,10.0,2.6,10.0,3.1,'1111122,1111122,1111122' 
NDBC,ioos:station:NOAA.NDBC:PLSF1:1,2016-02-17T03:00:00Z,24.6930,-82.7730,10.0,4.1,10.0,4.1,'1111122,1111122,1111122' 
NDBC,ioos:station:NOAA.NDBC:PLSF1:1,2016-02-17T04:00:00Z,24.6930,-82.7730,10.0,4.1,10.0,4.6,'1111122,1111122,1111122' 
NDBC,ioos:station:NOAA.NDBC:PLSF1:1,2016-02-17T05:00:00Z,24.6930,-82.7730,10.0,3.6,20.0,4.1,'1111122,1111122,1111122' 
NDBC,ioos:station:NOAA.NDBC:PLSF1:1,2016-02-17T06:00:00Z,24.6930,-82.7730,10.0,3.6,20.0,4.1,'1111122,1111122,1111122' 
NDBC,ioos:station:NOAA.NDBC:PLSF1:1,2016-02-17T07:00:00Z,24.6930,-82.7730,10.0,1.5,80.0,2.1,'1111122,1111122,1111122' 
NDBC,ioos:station:NOAA.NDBC:PLSF1:1,2016-02-17T08:00:00Z,24.6930,-82.7730,10.0,3.6,50.0,4.1,'1111122,1111122,1111122' 
NDBC,ioos:station:NOAA.NDBC:PLSF1:1,2016-02-17T09:00:00Z,24.6930,-82.7730,10.0,5.1,50.0,6.2,'1111122,1111122,1111122' 
NDBC,ioos:station:NOAA.NDBC:PLSF1:1,2016-02-17T10:00:00Z,24.6930,-82.7730,10.0,4.6,50.0,5.7,'1111122,1111122,1111122' 
NDBC,ioos:station:NOAA.NDBC:PLSF1:1,2016-02-17T11:00:00Z,24.6930,-82.7730,10.0,4.6,50.0,5.1,'1111122,1111122,1111122' 
NDBC,ioos:station:NOAA.NDBC:PLSF1:1,2016-02-17T12:00:00Z,24.6930,-82.7730,10.0,7.2,40.0,7.7,'1111122,1111122,1111122' 
NDBC,ioos:station:NOAA.NDBC:PLSF1:1,2016-02-17T13:00:00Z,24.6930,-82.7730,10.0,6.7,40.0,7.2,'1111122,1111122,1111122' 
NDBC,ioos:station:NOAA.NDBC:PLSF1:1,2016-02-17T14:00:00Z,24.6930,-82.7730,10.0,7.2,60.0,7.7,'1111122,1111122,1111122' 
NDBC,ioos:station:NOAA.NDBC:PLSF1:1,2016-02-17T15:00:00Z,24.6930,-82.7730,10.0,5.1,70.0,5.7,'1111122,1111122,1111122' 
NDBC,ioos:station:NOAA.NDBC:PLSF1:1,2016-02-17T16:00:00Z,24.6930,-82.7730,10.0,4.6,60.0,5.1,'1111122,1111122,1111122' 
NDBC,ioos:station:NOAA.NDBC:PLSF1:1,2016-02-17T17:00:00Z,24.6930,-82.7730,10.0,4.6,60.0,5.1,'1111122,1111122,1111122' 